Regional Weather Roundup
Issued by NWS

Home | Current Version | Previous Version | Graphics & Text | Print | Product List | Glossary On
Versions: 1 2 3 4 5 6 7 8 9 10 11 12 13 14 15 16 17 18 19 20 21 22 23 24 25 26 27 28 29 30 31 32 33 34 35 36 37 38 39 40 41 42 43 44 45 46 47 48 49 50
000
ASUS43 KTOP 221859
RWRKS

WEATHER ROUNDUP FOR KANSAS
NATIONAL WEATHER SERVICE GOODLAND KS
200 PM CDT SAT JUL 22 2017

NOTE:  "FAIR" INDICATES FEW OR NO CLOUDS BELOW 12,000 FEET WITH NO
SIGNIFICANT WEATHER AND/OR OBSTRUCTIONS TO VISIBILITY.

KSZ001>006-013>018-027>032-041>047-222000-
NORTHWEST KANSAS

CITY           SKY/WX    TMP DP  RH WIND       PRES   REMARKS
GOODLAND       CLOUDY    81  58  45 N14       30.08S
HAYS           SUNNY     99  62  29 SW10      29.88F HX 100
HILL CITY      SUNNY     99  65  32 E13G22    29.92F HX 102
RUSSELL        SUNNY    101  59  24 SW6       29.86F HX 101
$$

KSZ061>065-074>080-084>089-222000-
SOUTHWEST KANSAS

CITY           SKY/WX    TMP DP  RH WIND       PRES   REMARKS
DODGE CITY     SUNNY     99  56  23 SW7       29.93F HX  97
ELKHART          N/A     92  54  27 NE6         N/A
GARDEN CITY    SUNNY     94  57  28 VRB5      29.97F
LIBERAL        SUNNY     94  62  34 VRB7      29.98F
$$

KSZ066>073-081>083-090>101-222000-
SOUTHEAST KANSAS

CITY           SKY/WX    TMP DP  RH WIND       PRES   REMARKS
CHANUTE        SUNNY    101  71  38 S13G25    29.85F HX 109
COFFEYVILLE    SUNNY     98  74  45 S13       29.86F HX 109
HUTCHINSON     SUNNY    104  59  22 W10       29.84F HX 104
MEDICINE LODGE   N/A    103  55  20 SW8       29.85F HX 101
NEWTON         MOSUNNY  104  66  29 SW9       29.86F HX 109
PARSONS        SUNNY     98  72  42 S10       29.87F HX 107
WICHITA INTL   MOSUNNY  104  65  28 S15       29.84F HX 108
WICHITA JABRA  MOSUNNY  102  66  30 W10G17    29.86F HX 106
WICHITA MCCONL SUNNY    102  66  30 SW10      29.86F HX 106
WINFIELD       SUNNY    103  67  31 SW14G20   29.87F HX 108
$$

KSZ007>012-019>026-033>040-048>060-102>105-222000-
NORTHEAST KANSAS

CITY           SKY/WX    TMP DP  RH WIND       PRES   REMARKS
CONCORDIA      SUNNY     97  73  45 E7        29.86S HX 107
EMPORIA        SUNNY     98  70  40 SW8       29.85F HX 105
LAWRENCE       SUNNY     99  73  43 SW10      29.81F HX 109
MANHATTAN      SUNNY    102  69  34 SW8       29.81F HX 109
OLATHE IND     SUNNY     97  72  44 SW12      29.84F HX 105
OLATHE EXE     SUNNY     93  75  55 S10       29.84S HX 104
SALINA         SUNNY    107  59  20 VRB7      29.83F HX 108
TOPEKA BILLARD SUNNY     98  74  45 SW7       29.80F HX 109
TOPEKA FORBES  SUNNY     99  75  46 SW9G18    29.82F HX 112
$$




USA.gov is the U.S. government's official web portal to all federal, state and local government web resources and services.